Hourly Weather Luka

Today, 7 May, Friday

Time Temperature Precipitation Wind Pressure Humidity
00:00 +6°C° 0 mm 2 mps 730 mmHg 82%
01:00 +6°C° 0 mm 2 mps 730 mmHg 84%
02:00 +5°C° 0 mm 2 mps 730 mmHg 86%
03:00 +5°C° 0 mm 2 mps 729 mmHg 86%
04:00 +4°C° 0 mm 3 mps 729 mmHg 86%
05:00 +4°C° 0 mm 3 mps 729 mmHg 86%
06:00 +6°C° 0 mm 4 mps 729 mmHg 79%
07:00 +8°C° 0 mm 5 mps 728 mmHg 72%
08:00 +10°C° 0 mm 5 mps 728 mmHg 65%
09:00 +11°C° 0 mm 6 mps 728 mmHg 65%
10:00 +12°C° 0 mm 7 mps 727 mmHg 66%
11:00 +13°C° 0 mm 8 mps 727 mmHg 66%
12:00 +14°C° 0.3 mm 7 mps 727 mmHg 68%
13:00 +14°C° 0.3 mm 7 mps 726 mmHg 69%
14:00 +14°C° 0.3 mm 7 mps 726 mmHg 70%
15:00 +13°C° 0.8 mm 5 mps 726 mmHg 75%
16:00 +12°C° 0.8 mm 3 mps 725 mmHg 81%
17:00 +12°C° 0.8 mm 2 mps 725 mmHg 87%
18:00 +12°C° 0.1 mm 2 mps 725 mmHg 88%
19:00 +12°C° 0.1 mm 2 mps 725 mmHg 89%
20:00 +10°C° 0.1 mm 2 mps 725 mmHg 90%
21:00 +10°C° 0.2 mm 2 mps 725 mmHg 90%
22:00 +10°C° 0.2 mm 2 mps 725 mmHg 89%
23:00 +10°C° 0.2 mm 2 mps 726 mmHg 89%

Tomorrow, 8 May, Saturday

Time Temperature Precipitation Wind Pressure Humidity
00:00 +8°C° 0.1 mm 4 mps 726 mmHg 90%
01:00 +8°C° 0.1 mm 5 mps 726 mmHg 91%
02:00 +7°C° 0.1 mm 6 mps 726 mmHg 92%
03:00 +5°C° 0.1 mm 6 mps 727 mmHg 90%
04:00 +4°C° 0.1 mm 7 mps 728 mmHg 88%
05:00 +4°C° 0.1 mm 7 mps 728 mmHg 86%
06:00 +4°C° 0 mm 8 mps 729 mmHg 82%
07:00 +4°C° 0 mm 8 mps 730 mmHg 78%
08:00 +3°C° 0 mm 9 mps 730 mmHg 73%
09:00 +5°C° 0 mm 9 mps 731 mmHg 68%
10:00 +5°C° 0 mm 10 mps 731 mmHg 63%
11:00 +6°C° 0 mm 10 mps 732 mmHg 59%
12:00 +6°C° 0 mm 10 mps 732 mmHg 58%
13:00 +7°C° 0 mm 10 mps 732 mmHg 58%
14:00 +7°C° 0 mm 10 mps 733 mmHg 58%
15:00 +7°C° 0 mm 9 mps 733 mmHg 60%
16:00 +6°C° 0 mm 9 mps 733 mmHg 61%
17:00 +6°C° 0 mm 8 mps 734 mmHg 63%
18:00 +5°C° 0 mm 7 mps 734 mmHg 67%
19:00 +5°C° 0 mm 5 mps 734 mmHg 71%
20:00 +4°C° 0 mm 4 mps 735 mmHg 75%
21:00 +3°C° 0 mm 4 mps 735 mmHg 80%
22:00 +2°C° 0 mm 3 mps 736 mmHg 85%
23:00 +2°C° 0 mm 2 mps 736 mmHg 90%

Day after tomorrow, 9 May, Sunday

Time Temperature Precipitation Wind Pressure Humidity
00:00 +2°C° 0 mm 2 mps 736 mmHg 90%
01:00 +2°C° 0 mm 2 mps 737 mmHg 91%
02:00 +1°C° 0 mm 2 mps 737 mmHg 92%
03:00 +1°C° 0 mm 2 mps 737 mmHg 92%
04:00 +1°C° 0 mm 2 mps 737 mmHg 92%
05:00 +1°C° 0 mm 2 mps 738 mmHg 92%
06:00 +3°C° 0 mm 2 mps 738 mmHg 83%
07:00 +5°C° 0 mm 2 mps 739 mmHg 75%
08:00 +8°C° 0 mm 2 mps 739 mmHg 66%
09:00 +9°C° 0 mm 3 mps 739 mmHg 59%
10:00 +10°C° 0 mm 3 mps 739 mmHg 51%
11:00 +12°C° 0 mm 3 mps 739 mmHg 44%
12:00 +13°C° 0 mm 2 mps 739 mmHg 42%
13:00 +14°C° 0 mm 2 mps 739 mmHg 41%
14:00 +15°C° 0 mm 2 mps 739 mmHg 39%
15:00 +15°C° 0 mm 1 mps 739 mmHg 40%
16:00 +15°C° 0 mm 1 mps 739 mmHg 40%
17:00 +14°C° 0 mm 0 mps 738 mmHg 41%
18:00 +13°C° 0 mm 1 mps 739 mmHg 47%
19:00 +10°C° 0 mm 2 mps 739 mmHg 52%
20:00 +8°C° 0 mm 2 mps 739 mmHg 58%
21:00 +8°C° 0 mm 2 mps 739 mmHg 60%
22:00 +7°C° 0 mm 3 mps 739 mmHg 61%
23:00 +5°C° 0 mm 3 mps 739 mmHg 63%

10 May, Monday

Time Temperature Precipitation Wind Pressure Humidity
00:00 +5°C° 0 mm 3 mps 739 mmHg 64%
01:00 +5°C° 0 mm 3 mps 739 mmHg 65%
02:00 +4°C° 0 mm 3 mps 739 mmHg 66%
03:00 +4°C° 0 mm 3 mps 739 mmHg 66%
04:00 +4°C° 0 mm 3 mps 739 mmHg 66%
05:00 +4°C° 0 mm 3 mps 739 mmHg 67%
06:00 +6°C° 0 mm 4 mps 739 mmHg 64%
07:00 +8°C° 0 mm 4 mps 740 mmHg 60%
08:00 +10°C° 0 mm 5 mps 740 mmHg 57%
09:00 +12°C° 0 mm 5 mps 740 mmHg 54%
10:00 +14°C° 0 mm 5 mps 740 mmHg 50%
11:00 +15°C° 0 mm 6 mps 740 mmHg 47%
12:00 +16°C° 0 mm 6 mps 739 mmHg 46%
13:00 +16°C° 0 mm 5 mps 739 mmHg 45%
14:00 +17°C° 0 mm 5 mps 739 mmHg 44%
15:00 +17°C° 0 mm 5 mps 738 mmHg 47%
16:00 +17°C° 0 mm 4 mps 738 mmHg 49%
17:00 +17°C° 0 mm 4 mps 738 mmHg 52%
18:00 +14°C° 0 mm 4 mps 738 mmHg 59%
19:00 +12°C° 0 mm 4 mps 738 mmHg 65%
20:00 +10°C° 0 mm 4 mps 738 mmHg 72%
21:00 +10°C° 0 mm 4 mps 738 mmHg 74%
22:00 +8°C° 0 mm 4 mps 738 mmHg 75%
23:00 +7°C° 0 mm 4 mps 738 mmHg 76%

11 May, Tuesday

Time Temperature Precipitation Wind Pressure Humidity
00:00 +7°C° 0 mm 4 mps 738 mmHg 77%
01:00 +6°C° 0 mm 4 mps 738 mmHg 78%
02:00 +7°C° 0 mm 3 mps 738 mmHg 79%
03:00 +5°C° 0 mm 3 mps 738 mmHg 79%
04:00 +5°C° 0 mm 3 mps 738 mmHg 78%
05:00 +4°C° 0 mm 3 mps 738 mmHg 78%
06:00 +7°C° 0 mm 3 mps 738 mmHg 72%
07:00 +8°C° 0 mm 4 mps 738 mmHg 65%
08:00 +11°C° 0 mm 4 mps 738 mmHg 59%
09:00 +13°C° 0 mm 4 mps 737 mmHg 54%
10:00 +14°C° 0 mm 4 mps 737 mmHg 50%
11:00 +17°C° 0 mm 4 mps 737 mmHg 46%
12:00 +18°C° 0 mm 4 mps 737 mmHg 47%
13:00 +19°C° 0 mm 4 mps 736 mmHg 48%
14:00 +20°C° 0 mm 4 mps 736 mmHg 50%
15:00 +20°C° 0 mm 4 mps 736 mmHg 53%
16:00 +20°C° 0 mm 4 mps 735 mmHg 56%
17:00 +20°C° 0 mm 4 mps 735 mmHg 59%
18:00 +18°C° 0 mm 4 mps 735 mmHg 68%
19:00 +16°C° 0 mm 3 mps 734 mmHg 76%
20:00 +13°C° 0 mm 3 mps 734 mmHg 84%
21:00 +13°C° 0 mm 3 mps 734 mmHg 87%
22:00 +12°C° 0 mm 3 mps 734 mmHg 91%
23:00 +12°C° 0 mm 3 mps 734 mmHg 94%

12 May, Wednesday

Time Temperature Precipitation Wind Pressure Humidity
00:00 +11°C° 0 mm 4 mps 734 mmHg 95%
01:00 +10°C° 0 mm 4 mps 734 mmHg 95%
02:00 +10°C° 0 mm 4 mps 734 mmHg 96%
03:00 +8°C° 0 mm 4 mps 734 mmHg 95%
04:00 +6°C° 0 mm 4 mps 734 mmHg 93%
05:00 +5°C° 0 mm 4 mps 734 mmHg 92%
06:00 +6°C° 0 mm 4 mps 734 mmHg 85%
07:00 +8°C° 0 mm 4 mps 733 mmHg 78%
08:00 +9°C° 0 mm 5 mps 733 mmHg 70%
09:00 +10°C° 0 mm 5 mps 733 mmHg 66%
10:00 +13°C° 0 mm 5 mps 733 mmHg 62%
11:00 +14°C° 0 mm 5 mps 732 mmHg 58%
12:00 +15°C° 0 mm 5 mps 732 mmHg 55%
13:00 +16°C° 0 mm 5 mps 731 mmHg 53%
14:00 +17°C° 0 mm 4 mps 731 mmHg 50%
15:00 +15°C° 0 mm 5 mps 730 mmHg 57%
16:00 +14°C° 0 mm 5 mps 730 mmHg 63%
17:00 +11°C° 0 mm 6 mps 730 mmHg 69%
18:00 +12°C° 0 mm 5 mps 730 mmHg 70%
19:00 +10°C° 0 mm 5 mps 729 mmHg 70%
20:00 +9°C° 0 mm 5 mps 729 mmHg 70%
21:00 +9°C° 0 mm 5 mps 729 mmHg 75%
22:00 +8°C° 0 mm 5 mps 729 mmHg 79%
23:00 +7°C° 0 mm 4 mps 729 mmHg 84%
Show more

We Need Your Consent

Meteoprog and our Service Providers may store and access personal data such as cookies, device identifiers or other similar technologies on your device and process such data to personalise content and ads, as well as provide social media features and to analyse the traffic.

  • Store and/or access information on your device

    Cookies, device identifiers or other information can be stored or accessed on your device for the purposes indicated above.

  • Personalised ads and content, ad and content measurement, audience insights, and products development

    Ads and content can be personalised based on a profile. More data can be added to better personalise ads and content. Ad and content performance can be measured. Insights about the audience who saw the ads and content can be derived. Such data can be used to develop or improve user’s experience, systems and software.

By clicking ‘I Agree’ you will allow the use of indicated cookies, device identifiers, web beacons or other similar technologies. Your settings can be changed in the browser on your device.

For certain purposes, legitimate interests may be relied on, rather than consent. You can read more about this in our Privacy and Cookie Policy.